| time (UTC) | temp F | wind direction | speed MPH | gust MPH | rain 1hr in | rain 24hr in | rain mn in | humidity % | barometer mb |
| 20260503023026 | 65 | 224 | 0.0 | 0.0 | 0.00 | 0.00 | 0.00 | 52 | 1018.7 |
| 20260503021525 | 66 | 224 | 0.0 | 0.0 | 0.00 | 0.00 | 0.00 | 52 | 1018.6 |
| 20260503020024 | 66 | 224 | 0.0 | 0.0 | 0.00 | 0.00 | 0.00 | 52 | 1018.4 |
| 20260503014524 | 67 | 224 | 0.0 | 0.0 | 0.00 | 0.00 | 0.00 | 50 | 1018.3 |
| 20260503013024 | 68 | 224 | 0.0 | 0.0 | 0.00 | 0.00 | 0.00 | 49 | 1018.3 |
| 20260503011518 | 69 | 224 | 0.0 | 0.0 | 0.00 | 0.00 | 0.00 | 47 | 1018.2 |
| 20260503010014 | 70 | 224 | 0.0 | 0.0 | 0.00 | 0.00 | 0.00 | 45 | 1018.1 |
| 20260503004511 | 71 | 224 | 0.0 | 0.0 | 0.00 | 0.00 | 0.00 | 43 | 1018.1 |
| 20260503003006 | 72 | 224 | 0.0 | 0.0 | 0.00 | 0.00 | 0.00 | 42 | 1018.0 |
| 20260503001500 | 73 | 224 | 0.0 | 0.0 | 0.00 | 0.00 | 0.00 | 42 | 1018.1 |
| 20260503000057 | 73 | 224 | 0.0 | 0.0 | 0.00 | 0.00 | 0.00 | 41 | 1018.1 |
| 20260502234554 | 74 | 224 | 0.0 | 0.0 | 0.00 | 0.00 | 0.00 | 40 | 1018.2 |
| 20260502233049 | 75 | 37 | 0.0 | 0.0 | 0.00 | 0.00 | 0.00 | 37 | 1018.2 |
| 20260502231543 | 76 | 40 | 0.0 | 0.0 | 0.00 | 0.00 | 0.00 | 39 | 1018.2 |
| 20260502230039 | 76 | 40 | 0.0 | 0.0 | 0.00 | 0.00 | 0.00 | 38 | 1018.2 |
| 20260502224534 | 77 | 40 | 0.0 | 1.0 | 0.00 | 0.00 | 0.00 | 36 | 1018.3 |
| 20260502223030 | 78 | 150 | 0.0 | 0.0 | 0.00 | 0.00 | 0.00 | 35 | 1018.3 |
| 20260502221525 | 79 | 191 | 0.0 | 1.0 | 0.00 | 0.00 | 0.00 | 34 | 1018.6 |
| 20260502220026 | 79 | 352 | 0.0 | 0.0 | 0.00 | 0.00 | 0.00 | 34 | 1018.6 |
| 20260502214517 | 82 | 347 | 0.0 | 1.0 | 0.00 | 0.00 | 0.00 | 31 | 1018.7 |
| 20260502213013 | 83 | 120 | 0.0 | 1.0 | 0.00 | 0.00 | 0.00 | 32 | 1018.8 |
| 20260502211509 | 82 | 96 | 0.0 | 0.0 | 0.00 | 0.00 | 0.00 | 33 | 1019.1 |
| 20260502210005 | 80 | 53 | 0.0 | 1.0 | 0.00 | 0.00 | 0.00 | 32 | 1019.3 |
| 20260502204559 | 80 | 348 | 0.0 | 1.0 | 0.00 | 0.00 | 0.00 | 33 | 1019.6 |
| 20260502203056 | 81 | 8 | 0.0 | 2.0 | 0.00 | 0.00 | 0.00 | 34 | 1019.6 |
| 20260502201553 | 80 | 359 | 0.0 | 1.0 | 0.00 | 0.00 | 0.00 | 33 | 1019.9 |
| 20260502200049 | 81 | 5 | 0.0 | 1.0 | 0.00 | 0.00 | 0.00 | 31 | 1019.9 |
| 20260502194541 | 80 | 193 | 0.0 | 1.0 | 0.00 | 0.00 | 0.00 | 32 | 1020.1 |
| 20260502193037 | 80 | 356 | 0.0 | 2.0 | 0.00 | 0.00 | 0.00 | 32 | 1020.2 |
| 20260502191534 | 79 | 236 | 0.0 | 1.0 | 0.00 | 0.00 | 0.00 | 34 | 1020.3 |
| 20260502190035 | 78 | 346 | 0.0 | 3.0 | 0.00 | 0.00 | 0.00 | 34 | 1020.6 |
| 20260502184534 | 78 | 356 | 0.0 | 1.0 | 0.00 | 0.00 | 0.00 | 33 | 1020.8 |
| 20260502183028 | 77 | 356 | 0.0 | 2.0 | 0.00 | 0.00 | 0.00 | 34 | 1021.0 |
| 20260502181519 | 77 | 25 | 0.0 | 2.0 | 0.00 | 0.00 | 0.00 | 34 | 1021.1 |
| 20260502163053 | 71 | 354 | 0.0 | 3.0 | 0.00 | 0.00 | 0.00 | 47 | 1022.2 |
| 20260502161539 | 70 | 353 | 0.0 | 1.0 | 0.00 | 0.00 | 0.00 | 48 | 1022.1 |
| 20260502151522 | 65 | 349 | 0.0 | 1.0 | 0.00 | 0.00 | 0.00 | 54 | 1022.0 |
| 20260502123036 | 51 | 174 | 0.0 | 0.0 | 0.00 | 0.00 | 0.00 | 1 | 1020.9 |
| 20260502121540 | 50 | 173 | 0.0 | 0.0 | 0.00 | 0.00 | 0.00 | 1 | 1020.7 |
| 20260502114520 | 50 | 174 | 0.0 | 0.0 | 0.00 | 0.00 | 0.00 | 1 | 1020.1 |
| 20260502113016 | 50 | 173 | 0.0 | 0.0 | 0.00 | 0.00 | 0.00 | 1 | 1019.8 |
| 20260502111517 | 50 | 173 | 0.0 | 0.0 | 0.00 | 0.00 | 0.00 | 1 | 1019.5 |
| 20260502110009 | 50 | 173 | 0.0 | 0.0 | 0.00 | 0.00 | 0.00 | 1 | 1019.3 |
| 20260502104502 | 50 | 173 | 0.0 | 0.0 | 0.00 | 0.00 | 0.00 | 1 | 1019.3 |
| 20260502103058 | 51 | 174 | 0.0 | 0.0 | 0.00 | 0.00 | 0.00 | 1 | 1019.1 |
| 20260502101555 | 51 | 173 | 0.0 | 0.0 | 0.00 | 0.00 | 0.00 | 1 | 1019.4 |
| 20260502070109 | 52 | 173 | 0.0 | 0.0 | 0.00 | 0.00 | 0.00 | 11 | 1019.0 |
| 20260502064553 | 52 | 174 | 0.0 | 0.0 | 0.00 | 0.00 | 0.00 | 18 | 1018.9 |
| 20260502063055 | 53 | 173 | 0.0 | 0.0 | 0.00 | 0.00 | 0.00 | 19 | 1018.9 |
| 20260502061550 | 53 | 173 | 0.0 | 0.0 | 0.00 | 0.00 | 0.00 | 21 | 1019.0 |
| 20260502060047 | 53 | 173 | 0.0 | 0.0 | 0.00 | 0.00 | 0.00 | 30 | 1019.0 |
| 20260502054546 | 54 | 173 | 0.0 | 0.0 | 0.00 | 0.00 | 0.00 | 31 | 1019.0 |
| 20260502053046 | 54 | 173 | 0.0 | 0.0 | 0.00 | 0.00 | 0.00 | 39 | 1019.1 |
| 20260502051545 | 55 | 174 | 0.0 | 0.0 | 0.00 | 0.00 | 0.00 | 42 | 1018.8 |
| 20260502050038 | 55 | 173 | 0.0 | 0.0 | 0.00 | 0.00 | 0.00 | 47 | 1018.9 |
| 20260502044536 | 56 | 173 | 0.0 | 0.0 | 0.00 | 0.00 | 0.00 | 50 | 1018.8 |
| 20260502043027 | 56 | 173 | 0.0 | 0.0 | 0.00 | 0.00 | 0.00 | 52 | 1018.8 |
| 20260502041531 | 57 | 173 | 0.0 | 0.0 | 0.00 | 0.00 | 0.00 | 55 | 1018.7 |
| 20260502040019 | 57 | 173 | 0.0 | 0.0 | 0.00 | 0.00 | 0.00 | 56 | 1018.8 |
| 20260502034515 | 58 | 174 | 0.0 | 0.0 | 0.00 | 0.00 | 0.00 | 57 | 1018.5 |
| 20260502033011 | 58 | 173 | 0.0 | 0.0 | 0.00 | 0.00 | 0.00 | 58 | 1018.4 |
| 20260502031506 | 58 | 173 | 0.0 | 0.0 | 0.00 | 0.00 | 0.00 | 59 | 1018.4 |
| 20260502030000 | 59 | 173 | 0.0 | 0.0 | 0.00 | 0.00 | 0.00 | 59 | 1018.3 |
| 20260502024557 | 59 | 173 | 0.0 | 0.0 | 0.00 | 0.00 | 0.00 | 59 | 1017.9 |